Location: Arpaise
(41.0333°N, 14.7333°E)
Time: 21:06:36
(UTC+00:00)

Cosmos 846 Rocket - Pass Details

Date: 19 January 2021
Orbit: 948 x 991 km, 82.9° (Epoch: 06 March)

Event Time Altitude Azimuth Distance (km) Brightness Sun altitude
Rises 18:06:15 0° 170° (S) 3,674 8.5 -23.1°
Reaches altitude 10° 18:08:49 10° 166° (SSE) 2,724 7.8 -23.6°
Enters shadow 18:14:07 50° 115° (ESE) 1,224 5.6 -24.6°
